Theta_e
342 338 346 351 351 350 350 353 358 357 356 357 355 354 356 354 353 354 351 352 349 342
339 344 342 350 352 350 349 350 356 356 354 351 342 345 349 350 354 355 353 351 351 346
336 341 345 351 349 348 350 348 344 352 343 338 323 324 337 348 352 354 349 348 352 349
334 337 343 345 348 349 348 345 342 343 347 339 324 325 341 343 348 346 348 349 346 347
327 334 338 341 342 344 341 344 340 339 339 342 342 345 343 342 341 341 341 343 344 343
325 329 332 333 334 334 335 335 333 334 334 333 336 339 339 337 335 338 337 338 338 337
322 325 330 331 333 333 331 330 330 333 330 332 333 333 333 331 331 331 330 331 330 329
320 319 322 327 331 333 329 331 330 330 330 331 331 327 326 326 326 327 325 325 322 325
315 314 316 321 325 328 329 330 328 329 328 330 324 306 311 323 326 324 323 323 323 323
318 313 313 315 318 323 328 331 329 330 327 330 327 305 307 313 327 327 327 326 326 323
315 315 314 314 314 320 325 328 330 329 331 331 327 302 303 308 332 329 327 327 326 326
312 315 315 315 314 314 318 324 326 328 328 329 329 301 301 311 325 324 324 323 324 324
312 312 314 317 316 314 317 318 322 326 326 320 325 302 299 310 317 323 320 326 326 309
313 313 315 317 318 317 315 317 320 322 324 329 328 315 301 300 320 317 318 317 319 320
Wind_Speed
17 14 14 18 16 13 14 15 22 24 23 22 23 18 16 13 11 12 12 13 12 10
16 16 16 18 16 15 14 20 21 24 22 21 3 13 13 14 14 13 13 12 13 12
16 15 16 15 14 17 20 19 8 22 12 8 13 11 30 10 13 14 11 10 10 9
15 15 11 13 15 16 17 19 10 10 15 15 21 25 23 16 13 15 10 8 10 10
16 13 10 11 12 12 13 12 7 13 16 10 15 18 16 14 11 9 8 8 10 11
8 13 11 9 10 9 10 9 12 14 14 14 13 11 8 7 6 9 8 8 8 7
11 11 8 9 7 6 7 8 8 7 9 9 10 10 9 9 8 7 6 4 2 3
4 13 14 5 11 8 7 6 11 9 9 9 9 9 10 10 10 8 9 6 4 5
9 3 10 19 6 11 8 3 10 11 13 13 9 15 11 11 9 9 8 7 6 4
8 6 7 11 16 9 10 7 9 8 8 11 8 16 14 11 8 8 7 7 6 6
12 12 11 11 13 15 9 9 8 9 6 6 8 7 11 15 9 8 8 7 7 7
16 14 14 14 13 10 11 8 9 8 11 4 4 15 13 13 11 10 10 9 9 9
18 13 15 14 13 12 9 10 9 12 11 14 11 11 13 13 11 11 9 9 10 12
17 13 10 12 13 12 11 13 7 12 12 14 13 15 15 16 12 11 10 10 9 9
Wind_Direction
254 250 245 239 242 250 236 197 200 204 211 204 204 198 183 180 191 187 194 212 219 237
255 246 255 251 236 236 256 223 203 199 199 202 166 249 208 181 171 199 195 199 215 223
255 244 246 246 242 240 242 270 276 197 195 167 105 72 271 205 187 207 193 209 205 219
277 263 242 251 243 230 232 247 224 225 184 157 143 188 224 232 192 201 193 215 227 218
333 293 268 243 234 227 216 229 206 137 228 180 173 180 188 196 208 175 178 207 228 229
318 310 284 255 203 192 204 209 204 177 184 174 170 160 178 191 195 153 182 190 202 221
342 326 295 267 220 201 196 204 204 205 175 155 144 140 163 166 137 153 158 141 182 218
331 335 336 281 275 250 145 191 203 185 150 169 148 159 162 144 150 153 132 149 185 199
275 315 329 323 289 229 214 154 260 183 178 157 178 125 137 145 153 164 164 173 193 215
251 234 224 287 312 294 294 258 193 206 184 152 184 151 151 135 161 183 186 198 208 236
202 225 231 226 270 310 313 281 270 236 193 164 152 158 154 128 183 186 201 219 229 246
264 199 217 226 223 248 292 298 262 248 223 230 213 165 162 159 176 194 210 226 234 248
246 249 205 214 217 219 255 270 278 250 237 209 205 202 172 180 191 200 208 218 235 228
246 234 223 200 216 208 202 237 248 268 240 231 222 182 198 198 210 215 203 228 234 246